Home > Weather > Málaga > Past weeks

Flag for Spain Past Weather in Málaga, Spain — Yesterday and Last 2 Weeks

Now
77 °F

Sunny.


Feels Like: 79 °F
Forecast: 59 / 80 °F
Wind: 2 mph from North

Location: Malaga / Aeropuerto

Current Time: May 27, 2016 at 10:07:52 PM

Latest Report: May 27, 2016 at 9:30 PM


Visibility: 10 mi

Pressure: 29.95 "Hg

Humidity: 47%

Dew Point: 55 °F

Location of MálagaLocation

Past Weather in Málaga — Graph

°F

Málaga Temperature Yesterday

Maximum temperature yesterday: 84 °F (at 5:30 PM)
Minimum temperature yesterday: 63 °F (at 7:30 AM)
Average temperature yesterday: 73 °F

High & Low Weather Summary for the Past Weeks

 TemperatureHumidityPressure
High86 °F (May 19, 3:00 PM)100% (May 16, 11:00 PM)30.21 "Hg (May 16, 11:00 PM)
Low52 °F (May 13, 7:00 AM)27% (May 27, 6:00 PM)29.77 "Hg (May 25, 6:00 PM)
Average69 °F62%30.01 "Hg
* Reported May 12 8:00 PM — May 27 8:30 PM, Málaga, Weather by CustomWeather, © 2016

Note: Actual official high and low records may vary slightly from our data, if they occured in-between our weather recording intervals... More about our weather records

Advertising

Málaga Weather History for the Previous 24 Hours

Scroll right to see more
 ConditionsComfort  
Time TempWeatherWind HumidityBarometerVisibility
8:30 PM
Fri, May 27
79 °FSunny.8 mph51%29.92 "Hg10 mi
8:00 PM82 °FPassing clouds.5 mph42%29.92 "HgN/A
7:30 PM84 °FPassing clouds.5 mph37%29.92 "HgN/A
7:00 PM86 °FPassing clouds.8 mph33%29.92 "HgN/A
6:30 PM86 °FPassing clouds.3 mph33%29.92 "HgN/A
6:00 PM86 °FPassing clouds.12 mph27%29.95 "HgN/A
5:30 PM86 °FPassing clouds.7 mph35%29.92 "HgN/A
5:00 PM86 °FPassing clouds.14 mph35%29.95 "HgN/A
4:30 PM86 °FPassing clouds.12 mph35%29.95 "HgN/A
4:00 PM82 °FPassing clouds.14 mph40%29.95 "HgN/A
3:30 PM84 °FPassing clouds.10 mph37%29.95 "HgN/A
3:00 PM81 °FPassing clouds.10 mph39%29.95 "HgN/A
2:30 PM81 °FPassing clouds.10 mph32%29.95 "HgN/A
2:00 PM82 °FPassing clouds.8 mph32%29.95 "HgN/A
1:30 PM81 °FPassing clouds.7 mph37%29.95 "HgN/A
1:00 PM81 °FPassing clouds.7 mph37%29.95 "HgN/A
12:30 PM79 °FPassing clouds.8 mph39%29.98 "HgN/A
12:00 PM81 °FSunny.1 mph37%29.98 "Hg10 mi
11:30 AM77 °FPassing clouds.6 mph36%29.98 "HgN/A
11:00 AM77 °FPassing clouds.9 mph34%29.98 "HgN/A
10:30 AM73 °FPassing clouds.10 mph38%29.98 "HgN/A
10:00 AM73 °FPassing clouds.10 mph41%29.98 "HgN/A
9:30 AM70 °FPassing clouds.10 mph46%29.98 "HgN/A
9:00 AM68 °FPassing clouds.12 mph49%29.98 "HgN/A
8:30 AM68 °FPassing clouds.9 mph49%29.95 "HgN/A
8:00 AM66 °FPassing clouds.12 mph52%29.95 "HgN/A
7:30 AM64 °FPassing clouds.10 mph56%29.95 "HgN/A
7:00 AM64 °FClear.13 mph60%29.92 "Hg10 mi
6:30 AM64 °FPassing clouds.12 mph56%29.92 "HgN/A
6:00 AM66 °FClear.12 mph56%29.92 "Hg10 mi
5:00 AM66 °FClear.9 mph56%29.92 "Hg10 mi
4:00 AM64 °FClear.2 mph73%29.92 "Hg10 mi
3:30 AM68 °FPassing clouds.8 mph53%29.89 "HgN/A
3:00 AM68 °FPassing clouds.10 mph53%29.89 "HgN/A
2:30 AM68 °FPassing clouds.9 mph53%29.89 "HgN/A
2:00 AM66 °FClear.No wind73%29.89 "Hg10 mi
1:30 AM68 °FClear.2 mph53%29.89 "Hg10 mi
1:00 AM70 °FPassing clouds.3 mph50%29.89 "HgN/A
12:30 AM68 °FClear.No wind69%29.89 "Hg10 mi
12:00 AM68 °FClear.No wind69%29.89 "Hg10 mi
11:30 PM
Thu, May 26
70 °FClear.1 mph64%29.89 "Hg10 mi
11:00 PM70 °FClear.1 mph69%29.86 "Hg10 mi
10:30 PM70 °FClear.1 mph69%29.86 "Hg10 mi
10:00 PM72 °FPassing clouds.3 mph65%29.86 "HgN/A
Weather by CustomWeather, © 2016

See weather overviewHow to use our weather pages